Location: Cucq
(50.4773°N, 1.6202°E)
Time: 16:21:40
(UTC+00:00)

SL-14 R/B - Pass Details

Date: 07 August 2020
Orbit: 517 x 555 km, 82.4° (Epoch: 19 September)

Event Time Altitude Azimuth Distance (km) Brightness Sun altitude
Rises 02:56:25 0° 341° (NNW) 2,707 7.2 -12.7°
Reaches altitude 10° 02:58:46 10° 331° (NNW) 1,802 6.2 -12.5°
Maximum altitude 03:02:14 30° 269° (W) 972 4.2 -12.1°
Enters shadow 03:04:20 18° 221° (SW) 1,329 4.6 -11.9°
